Regional Weather Roundup
Issued by NWS Newport/Morehead, NC

Current Version | Previous Version | Text Only | Print | Product List | Glossary On
Versions: 1 2 3 4 5 6 7 8 9 10 11 12 13 14 15 16 17 18 19 20 21 22 23 24 25 26 27 28 29 30 31 32 33 34 35 36 37 38 39 40 41 42 43 44 45 46 47 48 49 50
844
ASUS42 KMHX 300513
RWRMHX
WEATHER ROUNDUP FOR EASTERN NORTH CAROLINA
NATIONAL WEATHER SERVICE NEWPORT/MOREHEAD CITY NC
100 AM EDT FRI SEP 30 2016

NOTE: "FAIR" INDICATES FEW OR NO CLOUDS BELOW 12,000 FEET
WITH NO SIGNIFICANT WEATHER AND/OR OBSTRUCTIONS TO VISIBILITY

NCZ015>017-031-032-045>047-102-103-300600-
NORTH COAST

CITY           SKY/WX    TMP DP  RH WIND       PRES   REMARKS
EDENTON        CLEAR     71  71 100 CALM      30.04F FOG
ELIZABETH CITY PTCLDY    69  68  96 CALM      30.03F FOG
KITTY HAWK     PTCLDY    74  74 100 CALM      30.02F
MANTEO         CLOUDY    74  74 100 CALM      30.04F

$$

NCZ045>047-081-094-103-104-300600-
CENTRAL COAST

CITY           SKY/WX    TMP DP  RH WIND       PRES   REMARKS
FRISCO         CLEAR     78  73  84 SW8       30.03F

$$

NCZ095-097-098-100-101-300600-
SOUTHERN COAST

CITY           SKY/WX    TMP DP  RH WIND       PRES   REMARKS
BEAUFORT       CLEAR     78  74  87 S6        30.02F
CEDAR ISLAND   NOT AVBL
JACKSONVILLE   CLEAR     73  70  90 CALM      30.00F
PINEY ISLAND   NOT AVBL
WILMINGTON     CLEAR     76  72  87 SE5       29.99F


$$

NCZ011>013-027>030-043-044-078>080-089-090>093-098-300600-
COASTAL PLAIN

CITY           SKY/WX    TMP DP  RH WIND       PRES   REMARKS
AHOSKIE        CLOUDY    70  69  98 N3        30.04F
CLINTON        NOT AVBL
ELIZABETHTOWN  MOCLDY    71  71 100 CALM      29.99F FOG
GOLDSBORO      CLEAR     70  70 100 E6        29.99F
GREENVILLE     CLOUDY    72  72 100 E5        30.04F FOG
HAVELOCK       PTCLDY    72  70  93 E5        30.03F
KENANSVILLE    MOCLDY    70  70 100 E3        30.00F FOG
KINSTON        CLEAR     72  71  98 CALM      30.02F
NEW BERN       PTCLDY    69  68  96 CALM      30.03F
RICHLANDS      CLEAR     70  69  97 NE5       30.01F FOG
ROCKY MOUNT    CLOUDY    72  72 100 VRB3      30.02F
WASHINGTON     FOG       71  71  99 CALM      30.03S VSB 1
WHITEVILLE     CLEAR     70  70  98 CALM      29.98F FOG

$$

AMZ130-135-150-152-154-156-158-170-250-252-270-ANZ085-086-088-633-658-670-300600-
MARINE OBSERVATIONS

STATION/POSITION TIME  TEMP    WIND        PRES    WAVE   SWELL
                       AIR SEA DIR/SP/G            HT/PER HT/PER
                 (UTC) (F)     (DEG/KT/KT) (MB)    (FT/S) (FT/S)
CHESAPEAKE LIGHT NOT AVBL
64 E VA BEACH    0450   75 74  200/  6/  8 1016.6    8/ 9   8/ 9
DUCK             0442   75 76  230/  4/  5 1016.3
2 E DUCK         0441      76                N/A     5/ 9   2/11
OREGON INLET     0442   78 78  200/  8/  9 1016.9
13E OREGON INLT  0430      77                N/A     6/ 8   7/ 8
HATTERAS CG      0442   78 80  190/  3/  6 1016.7
DIAMOND BUOY     0450   80 77  210/ 12/ 14 1016.7    4/10   3/10
CAPE LOOKOUT     0400   79     150/ 12/ 14 1016.5
BEAUFORT LAB     0442   79 77  170/  8/ 11 1015.9
30 SE NEW RVR IN 0408   81 83  180/ 12/ 16 1016.5
30 SE NEW RVR IN 0455      82                N/A     4/ 5
27 SE WRIGHTSVLE 0408   81 81  180/ 12/ 16 1016.4
5 SE WRIGHTSVLE  0408   80 81  180/ 12/ 16 1017.2
225 S CAPE HAT   0450   81 83  190/ 12/ 14 1018.0    3/10   3/10
41 SE CHARLESTON 0450   82 82  190/ 14/ 17 1014.6    3/ 5   2/ 9

$$




USA.gov is the U.S. government's official web portal to all federal, state and local government web resources and services.